sat.trackr.live / text

‹ back to catalog

STARLINK-32890

NORAD 62896 · 2025-024T

PAYLOAD ACTIVE UNKNOWN

§ Identity

Operator
Country
US
Launch date
2025-02-04
Launch site
AFETR
Launch vehicle
Mass (kg)
RCS (m²)

Purposes: comms

External: N2YO · Heavens-Above · Gunter

§ Orbital elements

Epoch: 2026-09-21T03:25:02.583264Z

Period
94.27 min
Inclination
43.0018°
Eccentricity
0.0002762
Mean motion
15.27590671 rev/d
Perigee alt
481.1 km
Apogee alt
484.9 km
Semi-major
6,861.2 km
B*
4.4032e-4
RAAN
301.0542°
Arg perigee
290.2266°
Mean anomaly
69.8288°
Rev number
9,216

§ Raw data

STARLINK-328901 62896U 25024T   26264.14239101  .00011878  00000+0  44032-3 0  99952 62896  43.0018 301.0542 0002762 290.2266  69.8288 15.27590671 92160

JSON: /api/v1/satellites/62896 · /tle

For live sub-satellite position, see the globe view (requires WebGL).

§ Visibility from observer

Set your observer location to see the next 7 days of passes ≥ 10°. The values pass through the URL so the page stays shareable.

No JS? Fill the form by hand. The geolocation button needs JavaScript.